Hutchinson, MN

7:59 AM CST on February 09, 2016 (GMT -0600)
Hutchinson Municipal-Butler

Weather History for KHCD - October, 2012

Change the Weather History Date:

Sunday, October 7, 2012

  Actual Average Record
Temperature  
Mean Temperature 38 °F -  
Max Temperature 56 °F 62 °F 87 °F (1980)
Min Temperature 19 °F 39 °F 19 °F (2012)
Degree Days  
Heating Degree Days 28    
Moisture  
Dew Point 23 °F    
Average Humidity 61    
Maximum Humidity 91    
Minimum Humidity 28    
Precipitation  
Precipitation 0.00 in - - ()
Sea Level Pressure  
Sea Level Pressure 30.05 in    
Wind  
Wind Speed 4 mph (SW)    
Max Wind Speed 15 mph    
Max Gust Speed 23 mph    
Visibility 10 miles    
Events      
Averages and records for this station are not official NWS values.
T = Trace of Precipitation, MM = Missing Value Source: NWS Daily Summary

Daily Weather History Graph

Daily Weather History Graph

Search for Another Location

Airport or City:

Trip Planner

Search our weather history database for the weather conditions in past years. The results will help you decide how hot, cold, wet, or windy it might be!

Date:

Astronomy

Oct. 07, 2012 Rise Set
Actual Time 7:23 AM CDT 6:46 PM CDT
Civil Twilight 6:54 AM CDT 7:15 PM CDT
Nautical Twilight 6:20 AM CDT 7:49 PM CDT
Astronomical Twilight 5:46 AM CDT 8:23 PM CDT
Moon 11:48 PM CDT (10/7) 2:11 PM CDT (10/7)
Length of Visible Light 12h 20m
Length of Day
11h 22m
Waning Gibbous, 56% of the Moon is Illuminated
Oct 7
Waning Gibbous
Oct 8
Last Quarter
Oct 15
New
Oct 21
First Quarter
Oct 29
Full

Hourly Weather History & Observations

Time (CDT) Temp. Windchill Dew Point Humidity Pressure Visibility Wind Dir Wind Speed Gust Speed Precip Events Conditions
12:10 AM 24.8 °F 20.5 °F 19.4 °F 80% 30.24 in 10.0 mi West 3.5 mph - N/A   Clear
12:30 AM 24.8 °F - 21.2 °F 86% 30.23 in 10.0 mi Calm Calm - N/A   Clear
12:49 AM 26.6 °F - 23.2 °F 87% 30.23 in 10.0 mi Calm Calm - N/A   Clear
1:08 AM 23.9 °F - 20.5 °F 87% 30.22 in 10.0 mi Calm Calm - N/A   Clear
1:27 AM 25.3 °F 21.1 °F 21.7 °F 86% 30.22 in 10.0 mi WSW 3.5 mph - N/A   Clear
1:46 AM 24.4 °F - 21.4 °F 88% 30.22 in 10.0 mi Calm Calm - N/A   Clear
2:01 AM 24.6 °F - 21.2 °F 87% 30.21 in 10.0 mi Calm Calm - N/A   Clear
2:29 AM 21.9 °F - 19.2 °F 89% 30.22 in 10.0 mi Calm Calm - N/A   Clear
2:48 AM 21.9 °F - 19.0 °F 89% 30.21 in 10.0 mi Calm Calm - N/A   Clear
3:09 AM 21.6 °F - 19.4 °F 91% 30.20 in 10.0 mi Calm Calm - N/A   Clear
3:28 AM 21.7 °F - 19.4 °F 91% 30.19 in 10.0 mi Calm Calm - N/A   Clear
3:49 AM 19.8 °F 14.7 °F 17.6 °F 91% 30.19 in 7.0 mi WSW 3.5 mph - N/A   Clear
4:09 AM 21.7 °F 15.5 °F 19.6 °F 91% 30.19 in 5.0 mi West 4.6 mph - N/A   Clear
4:28 AM 23.0 °F 18.4 °F 20.7 °F 91% 30.19 in 7.0 mi WSW 3.5 mph - N/A   Clear
4:49 AM 21.7 °F - 19.4 °F 91% 30.18 in 5.0 mi Calm Calm - N/A   Clear
5:09 AM 22.5 °F 17.8 °F 19.9 °F 90% 30.17 in 10.0 mi SW 3.5 mph - N/A   Clear
5:28 AM 21.7 °F - 19.2 °F 90% 30.17 in 4.0 mi Calm Calm - N/A   Clear
5:49 AM 22.1 °F - 19.6 °F 90% 30.17 in 7.0 mi Calm Calm - N/A   Clear
6:09 AM 21.9 °F 17.2 °F 19.8 °F 91% 30.16 in 10.0 mi SSW 3.5 mph - N/A   Clear
6:29 AM 21.9 °F - 19.4 °F 90% 30.16 in 10.0 mi Calm Calm - N/A   Clear
6:48 AM 21.9 °F 17.2 °F 19.8 °F 91% 30.15 in 10.0 mi South 3.5 mph - N/A   Clear
7:08 AM 21.7 °F - 19.0 °F 89% 30.15 in 10.0 mi Calm Calm - N/A   Clear
7:29 AM 24.3 °F - 21.2 °F 88% 30.15 in 10.0 mi Calm Calm - N/A   Clear
7:49 AM 26.6 °F 22.6 °F 23.0 °F 86% 30.15 in 10.0 mi SSW 3.5 mph - N/A   Clear
8:09 AM 26.8 °F - 23.0 °F 86% 30.14 in 10.0 mi Calm Calm - N/A   Clear
8:47 AM 31.8 °F 25.4 °F 26.2 °F 80% 30.14 in 10.0 mi SSW 6.9 mph - N/A   Clear
9:09 AM 34.0 °F 28.8 °F 27.3 °F 77% 30.13 in 10.0 mi SW 5.8 mph - N/A   Clear
9:28 AM 34.7 °F 28.1 °F 26.8 °F 73% 30.13 in 10.0 mi SW 8.1 mph - N/A   Clear
9:39 AM 36.5 °F 29.2 °F 27.5 °F 70% 30.13 in 10.0 mi SW 10.4 mph - N/A   Clear
10:10 AM 39.2 °F 33.0 °F 26.6 °F 61% 30.13 in 10.0 mi SW 9.2 mph - N/A   Clear
10:30 AM 42.8 °F 37.0 °F 26.6 °F 53% 30.12 in 10.0 mi SW 10.4 mph - N/A   Clear
10:50 AM 42.8 °F 37.5 °F 26.6 °F 53% 30.12 in 10.0 mi SW 9.2 mph 18.4 mph N/A   Clear
11:10 AM 46.4 °F 41.1 °F 26.6 °F 46% 30.11 in 10.0 mi SW 11.5 mph 18.4 mph N/A   Clear
11:30 AM 48.2 °F - 28.4 °F 46% 30.10 in 10.0 mi SW 12.7 mph 19.6 mph N/A   Clear
11:50 AM 48.2 °F - 26.6 °F 43% 30.09 in 10.0 mi WSW 12.7 mph 23.0 mph N/A   Clear
12:10 PM 48.2 °F - 24.8 °F 40% 30.08 in 10.0 mi WSW 15.0 mph 23.0 mph N/A   Clear
12:30 PM 50.0 °F - 24.8 °F 37% 30.07 in 10.0 mi WSW 13.8 mph 20.7 mph N/A   Clear
12:50 PM 51.8 °F - 24.8 °F 35% 30.06 in 10.0 mi SW 15.0 mph 20.7 mph N/A   Clear
1:10 PM 51.8 °F - 24.8 °F 35% 30.05 in 10.0 mi SSW 13.8 mph 19.6 mph N/A   Clear
1:30 PM 53.6 °F - 26.6 °F 35% 30.04 in 10.0 mi SW 15.0 mph 21.9 mph N/A   Clear
1:50 PM 53.6 °F - 24.8 °F 33% 30.02 in 10.0 mi SW 13.8 mph 18.4 mph N/A   Clear
2:30 PM 53.6 °F - 23.0 °F 30% 30.00 in 10.0 mi WSW 11.5 mph 18.4 mph N/A   Clear
2:50 PM 53.6 °F - 23.0 °F 30% 29.99 in 10.0 mi SW 9.2 mph - N/A   Clear
2:57 PM 54.1 °F - 23.7 °F 31% 29.99 in 10.0 mi SW 10.4 mph - N/A   Clear
3:09 PM 54.5 °F - 22.3 °F 29% 29.98 in 10.0 mi SW 10.4 mph 16.1 mph N/A   Clear
3:29 PM 54.1 °F - 22.3 °F 29% 29.97 in 10.0 mi SSW 8.1 mph - N/A   Clear
3:49 PM 56.1 °F - 23.4 °F 28% 29.96 in 10.0 mi SW 13.8 mph - N/A   Clear
4:09 PM 55.9 °F - 24.6 °F 30% 29.95 in 10.0 mi SW 13.8 mph 18.4 mph N/A   Clear
4:29 PM 55.6 °F - 24.1 °F 30% 29.94 in 10.0 mi SW 9.2 mph 18.4 mph N/A   Clear
4:49 PM 54.7 °F - 23.9 °F 30% 29.94 in 10.0 mi SW 9.2 mph - N/A   Clear
5:09 PM 54.1 °F - 24.4 °F 32% 29.93 in 10.0 mi WSW 9.2 mph 16.1 mph N/A   Scattered Clouds
5:29 PM 54.1 °F - 23.9 °F 31% 29.93 in 10.0 mi SW 5.8 mph - N/A   Mostly Cloudy
5:48 PM 54.1 °F - 24.6 °F 32% 29.93 in 10.0 mi SW 5.8 mph - N/A   Mostly Cloudy
6:09 PM 54.1 °F - 25.5 °F 33% 29.92 in 10.0 mi SW 5.8 mph - N/A   Scattered Clouds
6:29 PM 51.6 °F - 23.9 °F 34% 29.91 in 10.0 mi SSW 3.5 mph - N/A   Clear
6:49 PM 49.1 °F - 24.6 °F 38% 29.91 in 10.0 mi Calm Calm - N/A   Clear
7:07 PM 45.5 °F 44.2 °F 22.8 °F 41% 29.91 in 10.0 mi South 3.5 mph - N/A   Clear
7:29 PM 41.7 °F 39.8 °F 21.6 °F 45% 29.91 in 10.0 mi South 3.5 mph - N/A   Clear
7:49 PM 39.7 °F 37.6 °F 21.0 °F 47% 29.91 in 10.0 mi South 3.5 mph - N/A   Clear
8:09 PM 39.2 °F - 21.2 °F 49% 29.90 in 10.0 mi Calm Calm - N/A   Clear
8:29 PM 39.2 °F - 22.3 °F 51% 29.90 in 10.0 mi Calm Calm - N/A   Clear
8:49 PM 39.2 °F - 23.4 °F 53% 29.90 in 10.0 mi Calm Calm - N/A   Clear
8:55 PM 38.7 °F - 23.2 °F 54% 29.89 in 10.0 mi Calm Calm - N/A   Clear
9:30 PM 35.6 °F - 21.2 °F 56% 29.89 in 10.0 mi Calm Calm - N/A   Clear
9:50 PM 35.6 °F - 23.0 °F 60% 29.89 in 10.0 mi Calm Calm - N/A   Clear
10:10 PM 35.6 °F - 23.0 °F 60% 29.89 in 10.0 mi Calm Calm - N/A   Clear
10:30 PM 35.6 °F - 23.0 °F 60% 29.88 in 10.0 mi Calm Calm - N/A   Clear
10:50 PM 35.6 °F 32.8 °F 23.0 °F 60% 29.87 in 10.0 mi South 3.5 mph - N/A   Clear
11:10 PM 35.6 °F - 23.0 °F 60% 29.86 in 10.0 mi Calm Calm - N/A   Clear
11:30 PM 33.8 °F - 23.0 °F 65% 29.86 in 10.0 mi Calm Calm - N/A   Clear
11:50 PM 33.8 °F - 21.2 °F 60% 29.84 in 10.0 mi Calm Calm - N/A   Clear